This is the latest recevied weather packets stored in our database for station/object HF3P-11. If no packets are shown the sender has not sent any weather packets the latest 10 day(s).
| Time | Temp. | Humidity | Pressure | Rain* | Wind** | Luminosity | Snow |
|---|---|---|---|---|---|---|---|
| 1787583310 | 20.56° C | 71% | 1013.9 hPa | 0 mm | - | - | - |
| 1787583001 | 20.56° C | 69% | 1013.9 hPa | 0 mm | - | - | - |
| 1787582710 | 20.56° C | 70% | 1013.8 hPa | 0 mm | - | - | - |
| 1787582402 | 20.56° C | 70% | 1013.9 hPa | 0 mm | - | - | - |
| 1787582110 | 20.56° C | 71% | 1013.8 hPa | 0 mm | - | - | - |
| 1787581801 | 20.56° C | 68% | 1013.7 hPa | 0 mm | - | - | - |
| 1787581510 | 20.56° C | 71% | 1013.9 hPa | 0 mm | - | - | - |
| 1787581200 | 20.56° C | 69% | 1013.9 hPa | 0 mm | - | - | - |
| 1787580910 | 20.56° C | 70% | 1013.8 hPa | 0 mm | - | - | - |
| 1787580601 | 20.56° C | 70% | 1014 hPa | 0 mm | - | - | - |
| 1787580310 | 20° C | 72% | 1014 hPa | 0 mm | - | - | - |
| 1787580001 | 20° C | 72% | 1013.9 hPa | 0 mm | - | - | - |
| 1787579710 | 20° C | 73% | 1014 hPa | 0 mm | - | - | - |
| 1787579411 | 18.89° C | 71% | 1014.1 hPa | 0 mm | - | - | - |
| 1787579101 | 20° C | 73% | 1013.9 hPa | 0 mm | - | - | - |
| 1787578809 | 20° C | 70% | 1014.1 hPa | 0 mm | - | - | - |
| 1787578501 | 20° C | 72% | 1014 hPa | 0 mm | - | - | - |
| 1787578210 | 20° C | 74% | 1014.1 hPa | 0 mm | - | - | - |
| 1787577900 | 20° C | 76% | 1014.1 hPa | 0 mm | - | - | - |
| 1787577610 | 20° C | 74% | 1014 hPa | 0 mm | - | - | - |
| 1787577301 | 20° C | 75% | 1014 hPa | 0 mm | - | - | - |
| 1787577009 | 20° C | 77% | 1013.8 hPa | 0 mm | - | - | - |
| 1787576701 | 20° C | 79% | 1014.1 hPa | 0 mm | - | - | - |
| 1787576410 | 20° C | 79% | 1014 hPa | 0 mm | - | - | - |
| 1787576101 | 19.44° C | 79% | 1014 hPa | 0 mm | - | - | - |
* Rain latest hour (hover to see other rain measurements)
** Current wind speed in m/s (hover to see current wind gust speed)